Data No.,UTC Date,UTC Time,Latitude,Longitude,Course(deg),Temp(degC),Sal(psu)
21,2005/6/28,9:50:00,34-43.7900N,136-58.9900E,165,26.05,31.3264
22,2005/6/28,9:51:00,34-43.5800N,136-59.0500E,170,26.115,31.281
23,2005/6/28,9:52:00,34-43.3700N,136-59.0700E,176,26.083,31.1895
24,2005/6/28,9:53:00,34-43.1600N,136-59.0800E,179,25.911,31.0383
25,2005/6/28,9:54:00,34-42.9600N,136-59.0800E,179,25.12,30.9401
26,2005/6/28,9:55:00,34-42.7700N,136-59.0900E,179,24.834,30.9168
27,2005/6/28,9:56:00,34-42.5800N,136-59.0900E,179,25.36,30.9079
28,2005/6/28,9:57:00,34-42.3900N,136-59.0900E,179,24.922,31.1462
29,2005/6/28,9:58:00,34-42.2100N,136-59.0900E,179,23.953,31.374
30,2005/6/28,9:59:00,34-42.0400N,136-59.1000E,180,23.597,31.4265
31,2005/6/28,10:00:00,34-41.8700N,136-59.1000E,179,24.186,31.587
32,2005/6/28,10:01:00,34-41.7100N,136-59.1000E,176,24.763,31.8602
33,2005/6/28,10:02:00,34-41.5300N,136-59.1000E,184,24.794,32.0557
34,2005/6/28,10:03:00,34-41.3900N,136-59.0900E,186,24.745,32.1939
35,2005/6/28,10:04:00,34-41.2500N,136-59.0500E,191,24.687,32.235
36,2005/6/28,10:05:00,34-41.1200N,136-59.0200E,192,24.562,32.2526
37,2005/6/28,10:06:00,34-40.9900N,136-58.9900E,192,24.252,32.2476
38,2005/6/28,10:07:00,34-40.8500N,136-58.9500E,192,24.208,32.2139
39,2005/6/28,10:08:00,34-40.7200N,136-58.9100E,193,24.173,32.225
40,2005/6/28,10:09:00,34-40.5800N,136-58.8700E,192,23.957,32.256
41,2005/6/28,10:10:00,34-40.4400N,136-58.8300E,193,24.166,32.2518
42,2005/6/28,10:11:00,34-40.2900N,136-58.7900E,193,24.254,32.253
43,2005/6/28,10:12:00,34-40.1400N,136-58.7500E,193,24.318,32.2782
44,2005/6/28,10:13:00,34-39.9900N,136-58.7000E,193,24.438,32.2695
45,2005/6/28,10:14:00,34-39.8400N,136-58.6500E,193,24.527,32.2479
46,2005/6/28,10:15:00,34-39.6800N,136-58.6100E,193,24.595,32.2177
47,2005/6/28,10:16:00,34-39.5200N,136-58.5600E,193,24.627,32.1853
48,2005/6/28,10:17:00,34-39.3600N,136-58.5100E,194,24.685,32.1469
49,2005/6/28,10:18:00,34-39.2100N,136-58.4600E,198,24.717,32.1066
50,2005/6/28,10:19:00,34-39.0500N,136-58.3800E,200,24.755,32.1072
51,2005/6/28,10:20:00,34-38.9000N,136-58.3000E,207,24.783,32.099
52,2005/6/28,10:21:00,34-38.7600N,136-58.2000E,208,24.723,32.0887
53,2005/6/28,10:22:00,34-38.6200N,136-58.1100E,208,24.618,32.0795
54,2005/6/28,10:23:00,34-38.4900N,136-58.0200E,208,24.67,32.0691
55,2005/6/28,10:24:00,34-38.3500N,136-57.9400E,208,24.746,32.0672
56,2005/6/28,10:25:00,34-38.2300N,136-57.8500E,208,24.615,32.0823
57,2005/6/28,10:26:00,34-38.1100N,136-57.7700E,208,24.731,32.0882
58,2005/6/28,10:27:00,34-37.9900N,136-57.6900E,208,24.802,32.0672
59,2005/6/28,10:28:00,34-37.8700N,136-57.6100E,208,24.809,32.0657
60,2005/6/28,10:29:00,34-37.7400N,136-57.5300E,208,24.72,32.049
61,2005/6/28,10:30:00,34-37.6100N,136-57.4500E,209,24.766,32.0129
62,2005/6/28,10:31:00,34-37.5000N,136-57.3400E,218,24.707,31.9917
63,2005/6/28,10:32:00,34-37.3800N,136-57.2400E,216,24.724,31.9953
64,2005/6/28,10:33:00,34-37.2600N,136-57.1300E,219,24.735,31.9881
65,2005/6/28,10:34:00,34-37.1400N,136-57.0100E,221,24.751,31.9904
66,2005/6/28,10:35:00,34-37.0200N,136-56.8900E,217,24.738,31.9908
67,2005/6/28,10:36:00,34-36.8900N,136-56.7900E,208,24.75,32.0006
68,2005/6/28,10:37:00,34-36.7500N,136-56.7200E,200,24.768,31.994
69,2005/6/28,10:38:00,34-36.6000N,136-56.6900E,187,24.789,31.9885
70,2005/6/28,10:39:00,34-36.4400N,136-56.6700E,183,24.825,32.001
71,2005/6/28,10:40:00,34-36.3000N,136-56.7000E,167,24.867,32.0104
72,2005/6/28,10:41:00,34-36.1600N,136-56.7600E,155,24.786,32.0126
73,2005/6/28,10:42:00,34-36.0500N,136-56.8700E,136,24.604,32.0149
74,2005/6/28,10:43:00,34-35.9500N,136-56.9800E,133,24.77,32.0207
75,2005/6/28,10:44:00,34-35.8500N,136-57.1200E,132,24.793,32.0305
76,2005/6/28,10:45:00,34-35.7500N,136-57.2500E,132,24.752,32.0686
77,2005/6/28,10:46:00,34-35.6500N,136-57.3700E,136,24.714,32.0807
78,2005/6/28,10:47:00,34-35.5400N,136-57.5200E,133,24.676,32.1033
79,2005/6/28,10:48:00,34-35.4300N,136-57.6500E,135,24.547,32.1346
80,2005/6/28,10:49:00,34-35.3200N,136-57.8000E,133,24.11,32.1569
81,2005/6/28,10:50:00,34-35.2100N,136-57.9500E,131,24.231,32.1906
82,2005/6/28,10:51:00,34-35.1100N,136-58.1000E,129,24.151,32.221
83,2005/6/28,10:52:00,34-35.0100N,136-58.2500E,128,24.052,32.307
84,2005/6/28,10:53:00,34-34.9100N,136-58.4100E,128,23.761,32.3635
85,2005/6/28,10:54:00,34-34.8100N,136-58.5600E,128,23.502,32.4024
86,2005/6/28,10:55:00,34-34.7100N,136-58.7200E,128,23.351,32.4452
87,2005/6/28,10:56:00,34-34.6000N,136-58.8900E,128,23.231,32.5098
88,2005/6/28,10:57:00,34-34.5000N,136-59.0400E,129,23.067,32.5793
89,2005/6/28,10:58:00,34-34.3900N,136-59.1800E,133,23.266,32.6407
90,2005/6/28,10:59:00,34-34.2700N,136-59.3200E,133,23.353,32.699
91,2005/6/28,11:00:00,34-34.1600N,136-59.4700E,133,22.759,32.7179
92,2005/6/28,11:01:00,34-34.0500N,136-59.6100E,134,22.589,32.7348
93,2005/6/28,11:02:00,34-33.9300N,136-59.7500E,134,22.517,32.7414
94,2005/6/28,11:03:00,34-33.8200N,136-59.8900E,134,22.368,32.742
95,2005/6/28,11:04:00,34-33.7100N,137-00.0300E,133,22.414,32.8335
96,2005/6/28,11:05:00,34-33.6000N,137-00.1700E,133,22.415,32.879
97,2005/6/28,11:06:00,34-33.4900N,137-00.3100E,133,22.311,32.8875
98,2005/6/28,11:07:00,34-33.3700N,137-00.4500E,134,22.444,32.9324
99,2005/6/28,11:08:00,34-33.2500N,137-00.5900E,136,22.576,32.9507
100,2005/6/28,11:09:00,34-33.1300N,137-00.7200E,137,22.613,32.9609
101,2005/6/28,11:10:00,34-33.0100N,137-00.8500E,138,22.72,32.9657
102,2005/6/28,11:11:00,34-32.8900N,137-00.9800E,138,22.63,32.9579
103,2005/6/28,11:12:00,34-32.7700N,137-01.1100E,138,22.489,32.9358
104,2005/6/28,11:13:00,34-32.6500N,137-01.2400E,138,22.296,32.8959
105,2005/6/28,11:14:00,34-32.5300N,137-01.3600E,139,22.388,32.8956
106,2005/6/28,11:15:00,34-32.4200N,137-01.4800E,138,22.587,32.9154
107,2005/6/28,11:16:00,34-32.3200N,137-01.5800E,138,22.64,32.9282
108,2005/6/28,11:17:00,34-32.2100N,137-01.7000E,137,22.647,32.9394
109,2005/6/28,11:18:00,34-32.1000N,137-01.8100E,142,22.713,32.9198
110,2005/6/28,11:19:00,34-31.9800N,137-01.9000E,147,22.951,32.8775
111,2005/6/28,11:20:00,34-31.8500N,137-02.0000E,149,22.996,32.8822
112,2005/6/28,11:21:00,34-31.7100N,137-02.1000E,149,22.908,32.8699
113,2005/6/28,11:22:00,34-31.5600N,137-02.2000E,149,22.884,32.8442
114,2005/6/28,11:23:00,34-31.4000N,137-02.3200E,149,22.823,32.8267
115,2005/6/28,11:24:00,34-31.2400N,137-02.4300E,149,22.824,32.8208
116,2005/6/28,11:25:00,34-31.0800N,137-02.5500E,149,22.79,32.8207
117,2005/6/28,11:26:00,34-30.9200N,137-02.6600E,149,22.788,32.847
118,2005/6/28,11:27:00,34-30.7600N,137-02.7700E,150,22.657,32.8722
119,2005/6/28,11:28:00,34-30.5900N,137-02.8900E,148,22.549,32.8247
120,2005/6/28,11:29:00,34-30.4300N,137-03.0200E,144,22.306,32.8927
121,2005/6/28,11:30:00,34-30.2800N,137-03.1500E,144,22.257,32.9
122,2005/6/28,11:31:00,34-30.1200N,137-03.2800E,144,22.253,32.9236
123,2005/6/28,11:32:00,34-29.9600N,137-03.4200E,144,22.278,32.9576
124,2005/6/28,11:33:00,34-29.7900N,137-03.5200E,157,22.324,32.9909
125,2005/6/28,11:34:00,34-29.6100N,137-03.6000E,165,22.348,32.9992
126,2005/6/28,11:35:00,34-29.4300N,137-03.6400E,170,22.462,33.0171
127,2005/6/28,11:36:00,34-29.2300N,137-03.6800E,170,22.618,33.0167
128,2005/6/28,11:37:00,34-29.0400N,137-03.7000E,176,22.792,33.0056
129,2005/6/28,11:38:00,34-28.8400N,137-03.7100E,178,22.721,32.9733
130,2005/6/28,11:39:00,34-28.6400N,137-03.7200E,178,22.611,32.9585
131,2005/6/28,11:40:00,34-28.4400N,137-03.7200E,181,22.505,32.9683
132,2005/6/28,11:41:00,34-28.2400N,137-03.7100E,181,22.49,33.0314
133,2005/6/28,11:42:00,34-28.0400N,137-03.7100E,180,22.54,33.1761
134,2005/6/28,11:43:00,34-27.8300N,137-03.7000E,180,22.551,33.2982
135,2005/6/28,11:44:00,34-27.6300N,137-03.7000E,180,22.579,33.4089
136,2005/6/28,11:45:00,34-27.4300N,137-03.7000E,180,22.613,33.4693
137,2005/6/28,11:46:00,34-27.2200N,137-03.7000E,180,22.639,33.5117
138,2005/6/28,11:47:00,34-27.0100N,137-03.7000E,180,22.647,33.5472
139,2005/6/28,11:48:00,34-26.8000N,137-03.7000E,179,22.656,33.5699
140,2005/6/28,11:49:00,34-26.6000N,137-03.7000E,180,22.683,33.5825
141,2005/6/28,11:50:00,34-26.3700N,137-03.7000E,179,22.691,33.579
142,2005/6/28,11:51:00,34-26.1500N,137-03.7000E,180,22.658,33.5944
143,2005/6/28,11:52:00,34-25.9400N,137-03.7000E,180,22.612,33.6097
144,2005/6/28,11:53:00,34-25.7300N,137-03.7000E,179,22.63,33.6228
145,2005/6/28,11:54:00,34-25.5100N,137-03.7000E,179,22.637,33.6717
146,2005/6/28,11:55:00,34-25.2900N,137-03.7100E,179,22.555,33.7263
147,2005/6/28,11:56:00,34-25.0700N,137-03.7100E,179,22.564,33.7711
148,2005/6/28,11:57:00,34-24.8500N,137-03.7100E,180,22.407,33.7989
149,2005/6/28,11:58:00,34-24.6200N,137-03.7100E,180,22.417,33.8168
150,2005/6/28,11:59:00,34-24.4000N,137-03.7100E,179,22.541,33.8506
151,2005/6/28,12:00:00,34-24.1700N,137-03.7100E,180,22.325,33.8889
152,2005/6/28,12:01:00,34-23.9400N,137-03.7100E,180,22.611,33.9462
153,2005/6/28,12:02:00,34-23.7100N,137-03.7100E,179,22.846,33.9705
154,2005/6/28,12:03:00,34-23.4900N,137-03.7100E,179,22.833,33.9963
155,2005/6/28,12:04:00,34-23.2600N,137-03.7200E,179,22.985,33.9947
156,2005/6/28,12:05:00,34-23.0200N,137-03.7200E,179,23.069,33.9097
157,2005/6/28,12:06:00,34-22.7900N,137-03.7200E,179,23.128,33.8517
158,2005/6/28,12:07:00,34-22.5500N,137-03.7200E,179,23.158,33.82
159,2005/6/28,12:08:00,34-22.3200N,137-03.7300E,179,23.152,33.7642
160,2005/6/28,12:09:00,34-22.0800N,137-03.7300E,179,23.137,33.7175
161,2005/6/28,12:10:00,34-21.8400N,137-03.7400E,179,23.171,33.6884
162,2005/6/28,12:11:00,34-21.6000N,137-03.7300E,182,23.187,33.7098
163,2005/6/28,12:12:00,34-21.3600N,137-03.7200E,182,23.161,33.7099
164,2005/6/28,12:13:00,34-21.1100N,137-03.7100E,182,23.153,33.7108
165,2005/6/28,12:14:00,34-20.8700N,137-03.6900E,182,23.121,33.6952
166,2005/6/28,12:15:00,34-20.6200N,137-03.6800E,182,23.083,33.716
167,2005/6/28,12:16:00,34-20.3800N,137-03.6700E,182,23.08,33.7431
168,2005/6/28,12:17:00,34-20.1100N,137-03.6600E,182,23.089,33.7801
169,2005/6/28,12:18:00,34-19.8600N,137-03.6500E,182,23.086,33.8001
170,2005/6/28,12:19:00,34-19.6200N,137-03.6400E,182,23.067,33.8222
171,2005/6/28,12:20:00,34-19.3600N,137-03.6200E,184,23.083,33.845
172,2005/6/28,12:21:00,34-19.1100N,137-03.5900E,186,23.101,33.8484
173,2005/6/28,12:22:00,34-18.8600N,137-03.5600E,186,23.117,33.8716
174,2005/6/28,12:23:00,34-18.6100N,137-03.5200E,186,23.104,33.8879
175,2005/6/28,12:24:00,34-18.3600N,137-03.4800E,186,23.116,33.8854
176,2005/6/28,12:25:00,34-18.1100N,137-03.4500E,188,23.148,33.8843
177,2005/6/28,12:26:00,34-17.8500N,137-03.3900E,192,23.145,33.8846
178,2005/6/28,12:27:00,34-17.6100N,137-03.3200E,193,23.137,33.8944
179,2005/6/28,12:28:00,34-17.3600N,137-03.2400E,196,23.095,33.9022
180,2005/6/28,12:29:00,34-17.1200N,137-03.1500E,196,23.072,33.8874
181,2005/6/28,12:30:00,34-16.8700N,137-03.0600E,196,23.08,33.9155
182,2005/6/28,12:31:00,34-16.6300N,137-02.9700E,197,23.093,33.9217
183,2005/6/28,12:32:00,34-16.3900N,137-02.8900E,196,23.127,33.9494
184,2005/6/28,12:33:00,34-16.1400N,137-02.8000E,197,23.173,33.9727
185,2005/6/28,12:34:00,34-15.9000N,137-02.7100E,195,23.196,33.9833
186,2005/6/28,12:35:00,34-15.6600N,137-02.6300E,195,23.23,33.9944
187,2005/6/28,12:36:00,34-15.4100N,137-02.5700E,190,23.246,33.9916
188,2005/6/28,12:37:00,34-15.1700N,137-02.5100E,191,23.241,33.9893
189,2005/6/28,12:38:00,34-14.9100N,137-02.4700E,186,23.235,33.967
190,2005/6/28,12:39:00,34-14.6600N,137-02.4500E,181,23.238,33.9354
191,2005/6/28,12:40:00,34-14.4200N,137-02.4600E,176,23.246,33.9182
192,2005/6/28,12:41:00,34-14.1700N,137-02.4900E,175,23.295,33.93
193,2005/6/28,12:42:00,34-13.9100N,137-02.5100E,175,23.336,33.9498
194,2005/6/28,12:43:00,34-13.6600N,137-02.5400E,175,23.338,33.9676
195,2005/6/28,12:44:00,34-13.3900N,137-02.5600E,175,23.349,33.9866
196,2005/6/28,12:45:00,34-13.1400N,137-02.5900E,175,23.353,34.0019
197,2005/6/28,12:46:00,34-12.8800N,137-02.6200E,175,23.383,34.0074
198,2005/6/28,12:47:00,34-12.6300N,137-02.6400E,175,23.387,34.0127
199,2005/6/28,12:48:00,34-12.3800N,137-02.6700E,175,23.387,34.0259
200,2005/6/28,12:49:00,34-12.1300N,137-02.6900E,175,23.405,34.0495
201,2005/6/28,12:50:00,34-11.8700N,137-02.7100E,175,23.414,34.0653
202,2005/6/28,12:51:00,34-11.6200N,137-02.7300E,176,23.414,34.0816
203,2005/6/28,12:52:00,34-11.3600N,137-02.7500E,175,23.405,34.0807
204,2005/6/28,12:53:00,34-11.1000N,137-02.7800E,176,23.411,34.0981
205,2005/6/28,12:54:00,34-10.8500N,137-02.8000E,176,23.412,34.1071
206,2005/6/28,12:55:00,34-10.6000N,137-02.8100E,176,23.378,34.1172
207,2005/6/28,12:56:00,34-10.3400N,137-02.8300E,176,23.37,34.1194
208,2005/6/28,12:57:00,34-10.0900N,137-02.8600E,175,23.379,34.1243
209,2005/6/28,12:58:00,34-09.8300N,137-02.8800E,176,23.375,34.1412
210,2005/6/28,12:59:00,34-09.5800N,137-02.9000E,175,23.394,34.1218
211,2005/6/28,13:00:00,34-09.3200N,137-02.9200E,178,23.386,34.1507
212,2005/6/28,13:01:00,34-09.0700N,137-02.9000E,183,23.388,34.1485
213,2005/6/28,13:02:00,34-08.8200N,137-02.8800E,185,23.392,34.1286
214,2005/6/28,13:03:00,34-08.5600N,137-02.8300E,189,23.383,34.1499
215,2005/6/28,13:04:00,34-08.3100N,137-02.7700E,191,23.384,34.1435
216,2005/6/28,13:05:00,34-08.0600N,137-02.7100E,191,23.352,34.1583
217,2005/6/28,13:06:00,34-07.8100N,137-02.6500E,190,23.327,34.1433
218,2005/6/28,13:07:00,34-07.5600N,137-02.6000E,189,23.303,34.1453
219,2005/6/28,13:08:00,34-07.3100N,137-02.5500E,189,23.283,34.1386
220,2005/6/28,13:09:00,34-07.0500N,137-02.5000E,190,23.25,34.1274
221,2005/6/28,13:10:00,34-06.8000N,137-02.4700E,182,23.17,34.1174
222,2005/6/28,13:11:00,34-06.5400N,137-02.4700E,178,23.113,34.1118
223,2005/6/28,13:12:00,34-06.2800N,137-02.4900E,175,23.095,34.1069
224,2005/6/28,13:13:00,34-06.0300N,137-02.5100E,174,23.078,34.0864
225,2005/6/28,13:14:00,34-05.7800N,137-02.5300E,177,23.061,34.0695
226,2005/6/28,13:15:00,34-05.5300N,137-02.5400E,178,23.023,34.0564
227,2005/6/28,13:16:00,34-05.2700N,137-02.5500E,179,22.956,34.0469
228,2005/6/28,13:17:00,34-05.0200N,137-02.5500E,178,22.821,34.0424
229,2005/6/28,13:18:00,34-04.7700N,137-02.5600E,178,22.741,34.0318
230,2005/6/28,13:19:00,34-04.5100N,137-02.5700E,178,22.712,34.0166
231,2005/6/28,13:20:00,34-04.2500N,137-02.5700E,178,22.711,34.0056
232,2005/6/28,13:21:00,34-03.9900N,137-02.5800E,177,22.667,34.0156
233,2005/6/28,13:22:00,34-03.7400N,137-02.5900E,177,23.011,34.0222
234,2005/6/28,13:23:00,34-03.4800N,137-02.6000E,178,23.023,34.0242
235,2005/6/28,13:24:00,34-03.2200N,137-02.6100E,178,23.097,34.0367
236,2005/6/28,13:25:00,34-02.9600N,137-02.6200E,178,23.106,34.0906
237,2005/6/28,13:26:00,34-02.6900N,137-02.6300E,177,23.297,34.1498
238,2005/6/28,13:27:00,34-02.4200N,137-02.6500E,177,23.353,34.1804
239,2005/6/28,13:28:00,34-02.1600N,137-02.6700E,176,23.504,34.194
240,2005/6/28,13:29:00,34-01.9000N,137-02.6800E,177,23.557,34.1963
241,2005/6/28,13:30:00,34-01.6300N,137-02.6900E,178,23.544,34.2102
242,2005/6/28,13:31:00,34-01.3700N,137-02.6900E,179,23.517,34.2133
243,2005/6/28,13:32:00,34-01.1000N,137-02.7000E,179,23.536,34.2059
244,2005/6/28,13:33:00,34-00.8300N,137-02.7000E,179,23.525,34.2021
245,2005/6/28,13:34:00,34-00.5600N,137-02.7100E,179,23.535,34.1996
246,2005/6/28,13:35:00,34-00.2800N,137-02.7100E,179,23.495,34.2006
247,2005/6/28,13:36:00,34-00.0200N,137-02.7200E,179,23.466,34.1978
248,2005/6/28,13:37:00,33-59.7500N,137-02.7200E,179,23.423,34.2114
249,2005/6/28,13:38:00,33-59.4500N,137-02.7300E,179,23.314,34.2067
250,2005/6/28,13:39:00,33-59.1800N,137-02.7300E,179,23.291,34.2054
251,2005/6/28,13:40:00,33-58.9100N,137-02.7400E,179,23.239,34.2085
252,2005/6/28,13:41:00,33-58.6400N,137-02.7400E,179,23.241,34.2132
253,2005/6/28,13:42:00,33-58.3700N,137-02.7400E,179,23.26,34.2191
254,2005/6/28,13:43:00,33-58.1000N,137-02.7500E,179,23.312,34.2219
255,2005/6/28,13:44:00,33-57.8200N,137-02.7500E,179,23.3,34.2224
256,2005/6/28,13:45:00,33-57.5500N,137-02.7500E,179,23.277,34.2182
257,2005/6/28,13:46:00,33-57.2800N,137-02.7500E,179,23.243,34.2184
258,2005/6/28,13:47:00,33-57.0100N,137-02.7400E,182,23.261,34.213
259,2005/6/28,13:48:00,33-56.7400N,137-02.7200E,185,23.286,34.209
260,2005/6/28,13:49:00,33-56.4800N,137-02.6700E,190,23.307,34.2054
261,2005/6/28,13:50:00,33-56.2200N,137-02.5900E,195,23.317,34.2092
262,2005/6/28,13:51:00,33-55.9700N,137-02.5000E,197,23.255,34.2047
263,2005/6/28,13:52:00,33-55.7100N,137-02.3900E,199,23.191,34.2076
264,2005/6/28,13:53:00,33-55.4700N,137-02.2800E,201,23.174,34.2075
265,2005/6/28,13:54:00,33-55.2200N,137-02.1600E,201,23.181,34.2031
266,2005/6/28,13:55:00,33-54.9700N,137-02.0400E,202,23.177,34.1992
267,2005/6/28,13:56:00,33-54.7300N,137-01.9200E,202,23.163,34.2042
268,2005/6/28,13:57:00,33-54.4800N,137-01.8000E,202,23.149,---
269,2005/6/28,13:58:00,33-54.2400N,137-01.6700E,203,23.149,34.1982
270,2005/6/28,13:59:00,33-53.9900N,137-01.5500E,202,23.16,34.2155
271,2005/6/28,14:00:00,33-53.7500N,137-01.4300E,202,23.167,34.212
272,2005/6/28,14:01:00,33-53.5100N,137-01.3100E,202,23.16,34.2107
273,2005/6/28,14:02:00,33-53.2700N,137-01.1900E,202,23.159,---
274,2005/6/28,14:03:00,33-53.0400N,137-01.0700E,202,23.166,34.2229
275,2005/6/28,14:04:00,33-52.7900N,137-00.9500E,202,23.164,34.2163
276,2005/6/28,14:05:00,33-52.5400N,137-00.8300E,202,23.15,34.215
277,2005/6/28,14:06:00,33-52.3000N,137-00.7100E,202,23.121,34.2236
278,2005/6/28,14:07:00,33-52.0600N,137-00.5900E,202,23.108,34.2184
279,2005/6/28,14:08:00,33-51.8200N,137-00.4800E,202,23.112,34.228
280,2005/6/28,14:09:00,33-51.5800N,137-00.3600E,201,23.051,34.2294
281,2005/6/28,14:10:00,33-51.3500N,137-00.2600E,200,22.999,---
282,2005/6/28,14:11:00,33-51.1100N,137-00.1500E,199,22.988,34.2388
283,2005/6/28,14:12:00,33-50.8600N,137-00.0500E,199,23.013,34.2414
284,2005/6/28,14:13:00,33-50.6200N,136-59.9500E,199,23.037,34.2526
285,2005/6/28,14:14:00,33-50.3800N,136-59.8500E,199,23.026,34.249
286,2005/6/28,14:15:00,33-50.1500N,136-59.7500E,199,23.021,34.2458
287,2005/6/28,14:16:00,33-49.9100N,136-59.6500E,199,23.023,34.2416
288,2005/6/28,14:17:00,33-49.6700N,136-59.5400E,199,23.012,34.235
289,2005/6/28,14:18:00,33-49.4300N,136-59.4400E,199,23.001,34.2353
290,2005/6/28,14:19:00,33-49.1900N,136-59.3400E,199,22.987,34.2458
291,2005/6/28,14:20:00,33-48.9400N,136-59.2400E,198,22.934,34.2423
292,2005/6/28,14:21:00,33-48.7100N,136-59.1400E,198,22.899,34.2442
293,2005/6/28,14:22:00,33-48.4600N,136-59.0400E,198,22.872,34.2532
294,2005/6/28,14:23:00,33-48.2200N,136-58.9500E,198,22.888,34.2637
295,2005/6/28,14:24:00,33-47.9800N,136-58.8600E,198,22.929,34.2744
296,2005/6/28,14:25:00,33-47.7400N,136-58.7600E,198,22.947,34.2827
297,2005/6/28,14:26:00,33-47.5000N,136-58.6600E,198,22.951,34.2265
298,2005/6/28,14:27:00,33-47.2600N,136-58.5600E,198,22.958,34.2828
299,2005/6/28,14:28:00,33-47.0100N,136-58.4700E,197,22.983,34.2879
300,2005/6/28,14:29:00,33-46.7700N,136-58.3900E,194,23.036,34.2849
301,2005/6/28,14:30:00,33-46.5300N,136-58.3200E,192,23.064,34.274
302,2005/6/28,14:31:00,33-46.2800N,136-58.2600E,190,23.069,34.2754
303,2005/6/28,14:32:00,33-46.0000N,136-58.2100E,186,23.063,34.2788
304,2005/6/28,14:33:00,33-45.7500N,136-58.1800E,185,23.041,34.2574
305,2005/6/28,14:34:00,33-45.5000N,136-58.1600E,184,23.053,34.271
306,2005/6/28,14:35:00,33-45.2300N,136-58.1400E,184,23.072,34.2699
307,2005/6/28,14:36:00,33-44.9700N,136-58.1100E,184,23.076,34.2682
308,2005/6/28,14:37:00,33-44.7100N,136-58.0900E,185,23.079,34.2824
309,2005/6/28,14:38:00,33-44.4500N,136-58.0600E,186,23.045,34.2706
310,2005/6/28,14:39:00,33-44.1900N,136-58.0100E,188,23.021,34.2876
311,2005/6/28,14:40:00,33-43.9400N,136-57.9700E,188,23.028,34.2933
312,2005/6/28,14:41:00,33-43.6800N,136-57.9100E,191,23.054,34.2941
313,2005/6/28,14:42:00,33-43.4300N,136-57.8500E,191,23.082,34.2983
314,2005/6/28,14:43:00,33-43.1800N,136-57.7900E,191,23.084,34.3138
315,2005/6/28,14:44:00,33-42.9300N,136-57.7200E,192,23.079,34.3096
316,2005/6/28,14:45:00,33-42.6800N,136-57.6600E,192,23.091,34.3188
317,2005/6/28,14:46:00,33-42.4300N,136-57.5900E,194,23.096,34.3105
318,2005/6/28,14:47:00,33-42.1800N,136-57.5100E,194,23.091,34.3198
319,2005/6/28,14:48:00,33-41.9400N,136-57.4400E,193,23.095,34.3251
320,2005/6/28,14:49:00,33-41.6900N,136-57.3500E,196,23.095,34.3274
321,2005/6/28,14:50:00,33-41.4500N,136-57.2700E,197,23.097,34.3318
322,2005/6/28,14:51:00,33-41.2000N,136-57.1800E,197,23.121,34.3219
323,2005/6/28,14:52:00,33-40.9700N,136-57.0800E,197,23.138,34.3359
324,2005/6/28,14:53:00,33-40.7300N,136-57.0000E,197,23.153,34.337
325,2005/6/28,14:54:00,33-40.4900N,136-56.9100E,196,23.159,34.3381
326,2005/6/28,14:55:00,33-40.2500N,136-56.8200E,198,23.157,34.3366
327,2005/6/28,14:56:00,33-40.0100N,136-56.7200E,200,23.14,34.3414
328,2005/6/28,14:57:00,33-39.7800N,136-56.6100E,200,23.124,34.3373
329,2005/6/28,14:58:00,33-39.5500N,136-56.5100E,200,23.111,34.3466
330,2005/6/28,14:59:00,33-39.3000N,136-56.3900E,200,23.105,34.3488
331,2005/6/28,15:00:00,33-39.0600N,136-56.2900E,200,23.072,34.3604
332,2005/6/28,15:01:00,33-38.8300N,136-56.1800E,200,23.052,34.355
333,2005/6/28,15:02:00,33-38.5900N,136-56.0700E,200,23.009,34.3629
334,2005/6/28,15:03:00,33-38.3600N,136-55.9700E,199,22.997,34.3648
335,2005/6/28,15:04:00,33-38.1200N,136-55.8700E,199,23.015,34.3688
336,2005/6/28,15:05:00,33-37.8900N,136-55.7700E,199,23.027,34.3627
337,2005/6/28,15:06:00,33-37.6600N,136-55.6700E,200,23.031,34.3613
338,2005/6/28,15:07:00,33-37.4200N,136-55.5600E,200,23.029,34.3653
339,2005/6/28,15:08:00,33-37.1900N,136-55.4600E,200,23.016,34.379
340,2005/6/28,15:09:00,33-36.9500N,136-55.3500E,200,23.022,34.3847
341,2005/6/28,15:10:00,33-36.7200N,136-55.2400E,200,23.047,34.3846
342,2005/6/28,15:11:00,33-36.4900N,136-55.1400E,201,23.053,34.3897
343,2005/6/28,15:12:00,33-36.2500N,136-55.0300E,201,23.054,34.3851
344,2005/6/28,15:13:00,33-36.0200N,136-54.9200E,201,23.071,34.3848
345,2005/6/28,15:14:00,33-35.7900N,136-54.8100E,201,23.09,34.3884
346,2005/6/28,15:15:00,33-35.5600N,136-54.7000E,201,23.098,34.3917
347,2005/6/28,15:16:00,33-35.3300N,136-54.5900E,201,23.114,34.3898
348,2005/6/28,15:17:00,33-35.1000N,136-54.4800E,201,23.116,34.3971
349,2005/6/28,15:18:00,33-34.8700N,136-54.3700E,202,23.12,34.39
350,2005/6/28,15:19:00,33-34.6400N,136-54.2600E,202,23.124,34.3798
351,2005/6/28,15:20:00,33-34.4100N,136-54.1400E,202,23.131,34.3932
352,2005/6/28,15:21:00,33-34.1900N,136-54.0300E,202,23.125,34.394
353,2005/6/28,15:22:00,33-33.9500N,136-53.9100E,202,23.12,34.4013
354,2005/6/28,15:23:00,33-33.7300N,136-53.8000E,202,23.132,34.3949
355,2005/6/28,15:24:00,33-33.4900N,136-53.6800E,203,23.134,34.3839
356,2005/6/28,15:25:00,33-33.2600N,136-53.5600E,203,23.132,34.4018
357,2005/6/28,15:26:00,33-33.0200N,136-53.4400E,203,23.125,34.4008
358,2005/6/28,15:27:00,33-32.7900N,136-53.3200E,203,23.127,34.3742
359,2005/6/28,15:28:00,33-32.5700N,136-53.2000E,203,23.121,34.3714
360,2005/6/28,15:29:00,33-32.3400N,136-53.0800E,203,23.123,34.4005
361,2005/6/28,15:30:00,33-32.1100N,136-52.9600E,203,23.133,---
362,2005/6/28,15:31:00,33-31.8800N,136-52.8400E,204,23.14,34.4075
363,2005/6/28,15:32:00,33-31.6500N,136-52.7200E,204,23.144,34.4097
364,2005/6/28,15:33:00,33-31.4300N,136-52.6000E,203,23.138,34.4082
365,2005/6/28,15:34:00,33-31.2000N,136-52.4800E,203,23.147,34.4047
366,2005/6/28,15:35:00,33-30.9800N,136-52.3700E,204,23.152,34.4074
367,2005/6/28,15:36:00,33-30.7500N,136-52.2400E,204,23.16,34.3957
368,2005/6/28,15:37:00,33-30.5200N,136-52.1200E,204,23.162,34.3835
369,2005/6/28,15:38:00,33-30.3000N,136-52.0100E,203,23.172,34.4006
370,2005/6/28,15:39:00,33-30.0700N,136-51.8900E,203,23.184,34.311
371,2005/6/28,15:40:00,33-29.8500N,136-51.7700E,203,23.206,34.4042
372,2005/6/28,15:41:00,33-29.6300N,136-51.6500E,203,23.203,34.3978
373,2005/6/28,15:42:00,33-29.4000N,136-51.5300E,203,23.2,34.393
374,2005/6/28,15:43:00,33-29.1800N,136-51.4100E,204,23.211,34.3902